Date String (YYYY-MM-DD hh:mm:ss) UTC,Instrument flags,absolute air pressure of the measurement (hPa),sample flow rate (lpm),inlet stack bypass flow (lpm),air temperature of the measurement (°C),ambient temperature measured by the external sensor (°C),aerosol sample conditioner tube jacket temperature (°C),OPC LED temperature (°C),internal box temperature (°C),relative humidity of the measurement (%),span deviation,mass concentration of particles derived from Lorenz-Mie calculation of OPC scattering (μg/m³),mass concentration of particles derived from Lorenz-Mie calculation of OPC scattering (μg/m³),mass concentration of particles derived from Lorenz-Mie calculation of OPC scattering (μg/m³)
DateTimeUTC,F1_M11,P_M11,Q1_M11,Q2_M11,T1_M11,T2_M11,T3_M11,T4_M11,T5_M11,U1_M11,ZSPAN_M11,X2_M11,X0_M11,X1_M11
2024-02-05 11:00:00,SystemResetWarning,0829.4,5.00,000.00,018.5,018.0,000.0,026.8,020.1,16.7,0001.5,0005.01,0010.68,0004.60
2024-02-05 11:01:00,SystemResetWarning,0829.3,5.01,000.00,018.5,017.9,000.0,026.8,020.0,16.7,0001.0,0004.87,0010.57,0004.47
2024-02-05 11:02:00,SystemResetWarning,0829.3,5.01,000.00,018.4,017.9,000.0,026.9,020.0,16.8,0000.0,0004.73,0010.58,0004.33
2024-02-05 11:03:00,SystemResetWarning,0829.4,4.98,000.00,018.4,017.8,000.0,026.9,020.0,16.8,0000.0,0004.53,0010.64,0004.13
2024-02-05 11:04:00,SystemResetWarning,0829.3,5.00,000.00,018.4,017.8,000.0,026.9,020.0,16.9,0000.0,0004.35,0010.51,0003.91
2024-02-05 11:05:00,SystemResetWarning,0829.3,5.01,000.00,018.4,017.8,000.0,026.9,020.0,16.9,0000.0,0004.17,0010.60,0003.69
2024-02-05 11:06:00,SystemResetWarning,0829.3,5.01,000.00,018.4,017.7,000.0,026.9,020.0,16.9,0000.0,0004.08,0010.82,0003.57
2024-02-05 11:07:00,SystemResetWarning,0829.3,5.00,000.00,018.4,017.7,000.0,026.9,020.0,16.9,0000.0,0004.09,0011.05,0003.59
2024-02-05 11:08:00,SystemResetWarning,0829.4,5.00,000.00,018.4,017.7,000.0,026.9,020.0,16.9,0000.0,0004.10,0011.32,0003.64
2024-02-05 11:09:00,SystemResetWarning,0829.4,5.00,000.00,018.3,017.7,000.0,026.9,020.0,16.9,0000.0,0004.13,0010.89,0003.69
2024-02-05 11:10:00,SystemResetWarning,0829.4,4.99,000.00,018.3,017.7,000.0,026.9,020.0,16.9,0000.0,0004.17,0010.86,0003.74
2024-02-05 11:11:00,SystemResetWarning,0829.4,5.00,000.00,018.3,017.7,000.0,026.9,020.0,16.9,0000.0,0004.15,0010.65,0003.74
2024-02-05 11:12:00,SystemResetWarning,0829.3,5.01,000.00,018.3,017.6,000.0,026.9,020.0,17.0,0000.0,0004.16,0010.77,0003.76
2024-02-05 11:13:00,SystemResetWarning,0829.3,5.00,000.00,018.3,017.6,000.0,026.9,020.0,17.1,0000.0,0004.21,0010.90,0003.81
2024-02-05 11:14:00,SystemResetWarning,0829.3,5.00,000.00,018.3,017.5,000.0,027.0,020.0,17.2,0000.0,0004.30,0010.65,0003.91
2024-02-05 11:15:00,SystemResetWarning,0829.3,4.98,000.00,018.3,017.5,000.0,026.9,020.0,17.2,0000.0,0004.35,0010.75,0004.01
2024-02-05 11:16:00,SystemResetWarning,0829.4,5.02,000.00,018.3,017.5,000.0,026.9,020.0,17.1,0000.0,0004.44,0010.86,0004.14
2024-02-05 11:17:00,SystemResetWarning,0829.4,5.01,000.00,018.3,017.6,000.0,027.0,020.1,17.1,0001.4,0004.56,0010.55,0004.26
2024-02-05 11:18:00,SystemResetWarning,0829.3,5.00,000.00,018.4,018.3,000.0,027.1,020.5,17.0,0002.2,0004.62,0010.04,0004.33
2024-02-05 11:19:00,SystemResetWarning,0829.3,5.00,000.00,018.6,018.8,000.0,027.1,020.8,16.8,0002.2,0004.62,0009.12,0004.35
2024-02-05 11:20:00,SystemResetWarning,0829.4,4.99,000.00,018.7,018.7,000.0,027.0,020.6,16.7,0001.3,0004.61,0009.03,0004.35
2024-02-05 11:21:00,SystemResetWarning,0829.4,5.00,000.00,018.6,018.6,000.0,027.0,020.5,16.7,0000.0,0004.60,0010.04,0004.35
2024-02-05 11:22:00,SystemResetWarning,0829.3,5.00,000.00,018.6,018.5,000.0,026.9,020.4,16.7,0000.0,0004.64,0010.24,0004.37
2024-02-05 11:23:00,SystemResetWarning,0829.2,5.01,000.00,018.6,018.3,000.0,026.9,020.2,16.7,0000.0,0004.65,0010.85,0004.39
2024-02-05 11:24:00,SystemResetWarning,0829.1,5.00,000.00,018.5,018.2,000.0,026.9,020.1,16.7,0000.0,0004.64,0011.35,0004.34
2024-02-05 11:25:00,SystemResetWarning,0829.1,5.00,000.00,018.5,018.1,000.0,026.8,020.1,16.8,0000.0,0004.55,0011.58,0004.26
2024-02-05 11:26:00,SystemResetWarning,0829.2,4.99,000.00,018.5,018.0,000.0,026.8,020.0,16.8,0000.0,0004.46,0011.75,0004.15
2024-02-05 11:27:00,SystemResetWarning,0829.3,4.99,000.00,018.4,017.9,000.0,026.8,020.0,16.9,0000.0,0004.35,0011.30,0004.01
2024-02-05 11:28:00,SystemResetWarning,0829.3,5.00,000.00,018.4,017.8,000.0,026.9,020.0,17.0,0000.0,0004.24,0011.38,0003.85
2024-02-05 11:29:00,SystemResetWarning,0829.3,5.01,000.00,018.4,017.8,000.0,026.9,020.0,17.1,0000.0,0004.11,0011.42,0003.71
2024-02-05 11:30:00,SystemResetWarning,0829.4,5.01,000.00,018.3,017.7,000.0,027.0,020.0,17.1,0000.0,0004.02,0011.87,0003.61
2024-02-05 11:31:00,SystemResetWarning,0829.3,5.01,000.00,018.3,017.6,000.0,027.0,020.0,17.1,0000.0,0004.01,0012.56,0003.56
2024-02-05 11:32:00,SystemResetWarning,0829.3,5.00,000.00,018.3,017.6,000.0,027.0,020.0,17.1,0000.0,0003.99,0012.95,0003.53
2024-02-05 11:33:00,SystemResetWarning,0829.3,4.99,000.00,018.3,017.6,000.0,026.9,020.0,17.1,0000.0,0003.96,0012.64,0003.46
2024-02-05 11:34:00,SystemResetWarning,0829.3,4.99,000.00,018.3,017.5,000.0,026.9,020.0,17.1,0000.0,0003.92,0012.28,0003.39
2024-02-05 11:35:00,SystemResetWarning,0829.3,5.00,000.00,018.3,017.5,000.0,026.9,020.0,17.1,0000.0,0003.88,0012.09,0003.36
2024-02-05 11:36:00,SystemResetWarning,0829.3,5.02,000.00,018.4,017.9,000.0,027.0,020.3,17.1,0000.0,0003.90,0011.63,0003.35
2024-02-05 11:37:00,SystemResetWarning,0829.2,5.00,000.00,018.6,018.7,000.0,027.1,020.8,17.0,0000.0,0003.91,0011.72,0003.35
2024-02-05 11:38:00,SystemResetWarning,0829.3,5.00,000.00,018.7,018.9,000.0,027.1,020.8,16.8,0000.0,0003.94,0012.78,0003.37
2024-02-05 11:39:00,SystemResetWarning,0829.2,4.99,000.00,018.7,018.8,000.0,027.0,020.6,16.8,0000.0,0003.92,0013.26,0003.40
2024-02-05 11:40:00,SystemResetWarning,0829.2,5.00,000.00,018.6,018.6,000.0,026.9,020.3,16.9,0000.0,0004.00,0013.69,0003.45
2024-02-05 11:41:00,SystemResetWarning,0829.2,5.02,000.00,018.6,018.4,000.0,026.9,020.2,16.9,0000.0,0004.08,0013.46,0003.51
2024-02-05 11:42:00,SystemResetWarning,0829.2,4.99,000.00,018.5,018.2,000.0,026.9,020.1,17.0,0000.0,0004.08,0012.99,0003.53
2024-02-05 11:43:00,SystemResetWarning,0829.2,4.99,000.00,018.5,018.1,000.0,026.8,020.0,17.0,0000.0,0004.10,0012.19,0003.53
2024-02-05 11:44:00,SystemResetWarning,0829.2,5.01,000.00,018.5,018.0,000.0,026.9,020.0,17.0,0000.0,0004.07,0011.51,0003.55
2024-02-05 11:45:00,SystemResetWarning,0829.3,5.01,000.00,018.4,017.9,000.0,026.9,020.0,17.1,0000.0,0004.07,0011.28,0003.58
2024-02-05 11:46:00,SystemResetWarning,0829.2,5.00,000.00,018.4,017.8,000.0,026.9,020.0,17.1,0000.0,0004.07,0011.18,0003.59
2024-02-05 11:47:00,SystemResetWarning,0829.2,4.98,000.00,018.4,017.7,000.0,027.0,020.0,17.2,0000.0,0004.05,0011.30,0003.61
2024-02-05 11:48:00,SystemResetWarning,0829.2,5.00,000.00,018.3,017.6,000.0,027.0,020.0,17.2,0000.0,0004.08,0011.65,0003.64
2024-02-05 11:49:00,SystemResetWarning,0829.3,5.00,000.00,018.3,017.6,000.0,027.0,020.0,17.2,0000.0,0004.07,0011.23,0003.65
2024-02-05 11:50:00,SystemResetWarning,0829.2,5.00,000.00,018.3,017.5,000.0,027.0,020.0,17.2,0000.0,0004.10,0012.01,0003.67
2024-02-05 11:51:00,SystemResetWarning,0829.2,5.01,000.00,018.3,017.6,000.0,027.0,020.1,17.3,0000.0,0004.12,0011.71,0003.69
2024-02-05 11:52:00,SystemResetWarning,0829.2,5.02,000.00,018.5,018.4,000.0,027.1,020.6,17.2,0000.0,0004.09,0011.48,0003.69
2024-02-05 11:53:00,SystemResetWarning,0829.2,4.98,000.00,018.7,019.0,000.0,027.1,020.9,16.9,0000.0,0004.13,0011.40,0003.71
2024-02-05 11:54:00,SystemResetWarning,0829.2,5.00,000.00,018.7,018.9,000.0,027.1,020.7,16.9,0000.0,0004.13,0011.18,0003.72
2024-02-05 11:55:00,SystemResetWarning,0829.2,5.01,000.00,018.7,018.7,000.0,027.0,020.5,16.9,0000.0,0004.12,0011.05,0003.73
2024-02-05 11:56:00,SystemResetWarning,0829.2,5.01,000.00,018.6,018.5,000.0,027.0,020.3,16.9,0000.0,0004.11,0011.02,0003.74
2024-02-05 11:57:00,SystemResetWarning,0829.3,5.00,000.00,018.6,018.4,000.0,026.9,020.2,17.0,0000.0,0004.15,0011.38,0003.77
2024-02-05 11:58:00,SystemResetWarning,0829.3,5.00,000.00,018.6,018.2,000.0,026.9,020.1,17.0,0000.0,0004.19,0010.82,0003.81
2024-02-05 11:59:00,SystemResetWarning,0829.3,5.00,000.00,018.5,018.1,000.0,026.9,020.1,17.0,0000.0,0004.24,0011.31,0003.87
